Meknes, Morocco

10:06 PM WEST on July 24, 2017 (GMT +0100)
Meknes

Weather History for GMFM - November, 2013

Change the Weather History Date:

Saturday, November 9, 2013

  Actual Average (GMFF) Record (GMFF)
Temperature  
Mean Temperature 57 °F -  
Max Temperature 66 °F 65 °F 80 °F (1998)
Min Temperature 48 °F 46 °F 37 °F (2016)
Degree Days  
Heating Degree Days 8    
Growing Degree Days 7 (Base 50)    
Moisture  
Dew Point 50 °F    
Average Humidity 79    
Maximum Humidity 94    
Minimum Humidity 50    
Precipitation  
Precipitation 0.00 in 0.11 in - ()
Sea Level Pressure  
Sea Level Pressure 30.25 in    
Wind  
Wind Speed 3 mph ()    
Max Wind Speed 10 mph    
Max Gust Speed -    
Visibility 6.1 miles    
Events      
Averages and records for this station are not official NWS values.
T = Trace of Precipitation, MM = Missing Value Source: Averaged Metar Reports

Daily Weather History Graph

Daily Weather History Graph

Search for Another Location

Airport or City:

Trip Planner

Search our weather history database for the weather conditions in past years. The results will help you decide how hot, cold, wet, or windy it might be!

Date:

Astronomy

Nov. 09, 2013 Rise Set
Actual Time 6:48 AM WET 5:22 PM WET
Civil Twilight 6:22 AM WET 5:48 PM WET
Nautical Twilight 5:52 AM WET 6:18 PM WET
Astronomical Twilight 5:23 AM WET 6:48 PM WET
Moon 12:18 PM WET (11/9) 11:33 PM WET (11/9)
Length of Visible Light 11h 26m
Length of Day
10h 33m
Waxing Crescent, 41% of the Moon is Illuminated
Nov 9
Waxing Crescent
Nov 10
First Quarter
Nov 17
Full
Nov 25
Last Quarter
Dec 3
New

Hourly Weather History & Observations

Time (WET) Temp. Dew Point Humidity Pressure Visibility Wind Dir Wind Speed Gust Speed Precip Events Conditions
12:00 AM 53 °F 50 °F 87% 30.24 in 6 mi SSW 2.3 mph - -  
12:00 AM 51.8 °F 50.0 °F 94% 30.24 in - SSW 2.3 mph - N/A   Clear
1:00 AM 51.8 °F 50.0 °F 94% 30.24 in - SSW 2.3 mph - N/A   Clear
2:00 AM 50.0 °F 48.2 °F 94% 30.21 in - SSW 2.3 mph - N/A   Clear
3:00 AM 53 °F 50 °F 87% 30.24 in 6 mi SSW 2.3 mph - -  
3:00 AM 50.0 °F 48.2 °F 94% 30.21 in - SSW 2.3 mph - N/A   Clear
4:00 AM 50.0 °F 48.2 °F 94% 30.24 in - South 2.3 mph - N/A   Clear
5:00 AM 51.8 °F 48.2 °F 88% 30.24 in - SSE 4.6 mph - N/A   Clear
6:00 AM 52 °F 49 °F 84% 30.24 in 6 mi SSE 5.8 mph - -  
6:00 AM 51.8 °F 48.2 °F 88% 30.24 in - SSE 5.8 mph - N/A   Clear
7:00 AM 50.0 °F 48.2 °F 94% 30.27 in 6.2 mi Calm Calm - N/A   Mostly Cloudy
8:00 AM 51.8 °F 48.2 °F 88% 30.27 in 6.2 mi NNE 2.3 mph - N/A   Scattered Clouds
9:00 AM 62 °F 50 °F 56% 30.25 in 6 mi SSE 2.3 mph - -   Mostly Cloudy
9:00 AM 60.8 °F 50.0 °F 68% 30.27 in 6.2 mi SSE 2.3 mph - N/A   Scattered Clouds
10:00 AM 62.6 °F 51.8 °F 68% 30.27 in 6.2 mi NNE 2.3 mph - N/A   Mostly Cloudy
11:00 AM 64.4 °F 51.8 °F 64% 30.30 in 6.2 mi NE 3.5 mph - N/A   Mostly Cloudy
12:00 PM 66 °F 52 °F 50% 30.22 in 6 mi North 4.6 mph - -   Mostly Cloudy
12:00 PM 66.2 °F 51.8 °F 60% 30.27 in 6.2 mi North 4.6 mph - N/A   Mostly Cloudy
1:00 PM 66.2 °F 51.8 °F 60% 30.27 in 6.2 mi NW 5.8 mph - N/A   Mostly Cloudy
2:00 PM 66.2 °F 51.8 °F 60% 30.24 in 6.2 mi NW 10.4 mph - N/A   Scattered Clouds